Change the Weather History Date:

Wednesday, November 6, 2013

  Actual Average Record
Temperature  
Mean Temperature 25 °F -  
Max Temperature 36 °F 33 °F 57 °F (1999)
Min Temperature 14 °F 13 °F 5 °F (2000)
Degree Days  
Heating Degree Days 40    
Moisture  
Dew Point 14 °F    
Average Humidity 62    
Maximum Humidity 86    
Minimum Humidity 42    
Precipitation  
Precipitation 0.00 in - - ()
Sea Level Pressure  
Sea Level Pressure 30.29 in    
Wind  
Wind Speed 6 mph ()    
Max Wind Speed 14 mph    
Max Gust Speed -    
Visibility 15.6 miles    
Events      
Averages and records for this station are not official NWS values.
T = Trace of Precipitation, MM = Missing Value Source: Averaged Metar Reports

Daily Weather History Graph

Daily Weather History Graph

Search for Another Location

Airport or City:

Trip Planner

Search our weather history database for the weather conditions in past years. The results will help you decide how hot, cold, wet, or windy it might be!

Date:

Astronomy

Nov. 06, 2013 Rise Set
Actual Time 7:39 AM MST 5:02 PM MST
Civil Twilight 7:03 AM MST 5:37 PM MST
Nautical Twilight 6:24 AM MST 6:17 PM MST
Astronomical Twilight 5:45 AM MST 6:55 PM MST
Moon 11:07 AM MST 8:02 PM MST
Length of Visible Light 10h 33m
Length of Day
9h 22m
Waxing Crescent, 14% of the Moon is Illuminated
Nov 6
Waxing Crescent
Nov 9
First Quarter
Nov 17
Full
Nov 25
Last Quarter
Dec 2
New

Hourly Weather History & Observations

Time (MST) Temp. Windchill Dew Point Humidity Pressure Visibility Wind Dir Wind Speed Gust Speed Precip Events Conditions
5:00 AM 15 °F - 10 °F 74% 30.19 in 15 mi NW 6.9 mph - -  
5:00 AM 14.0 °F 5.1 °F 10.4 °F 86% 30.19 in 15.0 mi NNW 5.8 mph - N/A   Clear
6:00 AM 15.8 °F 8.6 °F 10.4 °F 79% 30.22 in 15.0 mi NW 4.6 mph - N/A   Clear
7:00 AM 17.6 °F 8.2 °F 12.2 °F 79% 30.22 in 20.0 mi NNW 6.9 mph - N/A   Partly Cloudy
8:00 AM 19.4 °F - 12.2 °F 74% 30.23 in 30.0 mi Calm Calm - N/A   Partly Cloudy
9:00 AM 19.4 °F 12.8 °F 12.2 °F 74% 30.25 in 30.0 mi North 4.6 mph - N/A   Partly Cloudy
10:00 AM 24.8 °F - 14.0 °F 64% 30.26 in 30.0 mi Calm Calm - N/A   Partly Cloudy
11:00 AM 29 °F - 17 °F 49% 30.26 in 28 mi NNW 3.5 mph - -   Scattered Clouds
11:00 AM 28.4 °F 24.6 °F 17.6 °F 64% 30.26 in 30.0 mi North 3.5 mph - N/A   Partly Cloudy
12:00 PM 35.6 °F 29.2 °F 17.6 °F 48% 30.26 in 30.0 mi NW 8.1 mph - N/A   Partly Cloudy
1:00 PM 35.6 °F 27.5 °F 19.4 °F 52% 30.27 in 30.0 mi WNW 11.5 mph - N/A   Partly Cloudy
2:00 PM 35.6 °F 26.6 °F 17.6 °F 48% 30.27 in 40.0 mi West 13.8 mph - N/A   Scattered Clouds
3:00 PM 35.6 °F 26.6 °F 19.4 °F 52% 30.30 in 40.0 mi West 13.8 mph - N/A   Scattered Clouds
4:00 PM 32.0 °F 23.6 °F 17.6 °F 55% 30.31 in 40.0 mi WSW 10.4 mph - N/A   Scattered Clouds
5:00 PM 28 °F - 14 °F 42% 30.34 in 37 mi WSW 10.4 mph - -   Scattered Clouds
5:00 PM 28.4 °F 19.1 °F 14.0 °F 55% 30.34 in 40.0 mi WSW 10.4 mph - N/A   Mostly Cloudy
6:00 PM 24.8 °F 16.9 °F 12.2 °F 59% 30.36 in 30.0 mi West 6.9 mph - N/A   Mostly Cloudy
7:00 PM 28.4 °F 23.3 °F 12.2 °F 51% 30.35 in 15.0 mi NW 4.6 mph - N/A   Scattered Clouds
8:00 PM 19.4 °F 10.4 °F 10.4 °F 68% 30.37 in 15.0 mi NW 6.9 mph - N/A   Scattered Clouds
9:00 PM 17.6 °F 8.2 °F 8.6 °F 68% 30.39 in 15.0 mi WNW 6.9 mph - N/A   Partly Cloudy
10:00 PM 21.2 °F 13.6 °F 8.6 °F 58% 30.37 in 15.0 mi WNW 5.8 mph - N/A   Clear